Topeka Forbes, KS

5:03 AM CDT on May 25, 2017 (GMT -0500)
Forbes

Weather History for KFOE - November, 2012

Change the Weather History Date:

Friday, November 30, 2012

  Actual Average Record
Temperature  
Mean Temperature 45 °F -  
Max Temperature 57 °F 46 °F 68 °F (1970)
Min Temperature 33 °F 26 °F 4 °F (1976)
Degree Days  
Heating Degree Days 20    
Moisture  
Dew Point 38 °F    
Average Humidity 73    
Maximum Humidity 92    
Minimum Humidity 51    
Precipitation  
Precipitation 0.00 in - - ()
Sea Level Pressure  
Sea Level Pressure 30.04 in    
Wind  
Wind Speed 5 mph (SSE)    
Max Wind Speed 8 mph    
Max Gust Speed -    
Visibility 10 miles    
Events      
Averages and records for this station are not official NWS values.
T = Trace of Precipitation, MM = Missing Value Source: NWS Daily Summary

Daily Weather History Graph

Daily Weather History Graph

Search for Another Location

Airport or City:

Trip Planner

Search our weather history database for the weather conditions in past years. The results will help you decide how hot, cold, wet, or windy it might be!

Date:

Astronomy

Nov. 30, 2012 Rise Set
Actual Time 7:21 AM CST 5:00 PM CST
Civil Twilight 6:52 AM CST 5:30 PM CST
Nautical Twilight 6:19 AM CST 6:03 PM CST
Astronomical Twilight 5:47 AM CST 6:35 PM CST
Moon 6:56 PM CST (11/30) 8:54 AM CST (11/30)
Length of Visible Light 10h 37m
Length of Day
9h 39m
Waning Gibbous, 96% of the Moon is Illuminated
Nov 30
Waning Gibbous
Dec 6
Last Quarter
Dec 13
New
Dec 19
First Quarter
Dec 28
Full

Hourly Weather History & Observations

Time (CST) Temp. Windchill Dew Point Humidity Pressure Visibility Wind Dir Wind Speed Gust Speed Precip Events Conditions
12:53 AM 42.1 °F 37.7 °F 33.1 °F 70% 30.01 in 10.0 mi SSW 6.9 mph - N/A   Clear
1:53 AM 41.0 °F 38.0 °F 33.1 °F 73% 30.02 in 10.0 mi South 4.6 mph - N/A   Clear
2:53 AM 39.9 °F 34.5 °F 33.1 °F 77% 30.02 in 10.0 mi SSW 8.1 mph - N/A   Clear
3:53 AM 39.9 °F 35.1 °F 33.1 °F 77% 30.02 in 10.0 mi SSW 6.9 mph - N/A   Clear
4:53 AM 37.0 °F 31.6 °F 32.0 °F 82% 30.04 in 10.0 mi SSW 6.9 mph - N/A   Clear
5:53 AM 39.0 °F 36.8 °F 33.1 °F 79% 30.06 in 10.0 mi West 3.5 mph - N/A   Clear
6:53 AM 33.1 °F 30.0 °F 30.0 °F 89% 30.08 in 10.0 mi WSW 3.5 mph - N/A   Clear
7:53 AM 33.1 °F 27.7 °F 30.0 °F 89% 30.10 in 10.0 mi SW 5.8 mph - N/A   Clear
8:53 AM 42.1 °F 40.2 °F 36.0 °F 79% 30.10 in 10.0 mi South 3.5 mph - N/A   Clear
9:53 AM 46.0 °F - 39.0 °F 76% 30.10 in 10.0 mi Calm Calm - N/A   Clear
10:53 AM 51.1 °F - 39.0 °F 63% 30.10 in 10.0 mi Calm Calm - N/A   Clear
11:53 AM 54.0 °F - 39.0 °F 57% 30.08 in 10.0 mi Calm Calm - N/A   Clear
12:53 PM 55.9 °F - 39.0 °F 53% 30.06 in 10.0 mi Calm Calm - N/A   Clear
1:53 PM 57.0 °F - 39.0 °F 51% 30.04 in 10.0 mi Calm Calm - N/A   Clear
2:53 PM 57.0 °F - 39.9 °F 53% 30.03 in 10.0 mi Calm Calm - N/A   Clear
3:53 PM 55.9 °F - 39.0 °F 53% 30.02 in 10.0 mi ESE 4.6 mph - N/A   Clear
4:53 PM 54.0 °F - 39.0 °F 57% 30.02 in 10.0 mi ESE 3.5 mph - N/A   Clear
5:53 PM 48.9 °F - 37.9 °F 66% 30.02 in 10.0 mi East 4.6 mph - N/A   Clear
6:53 PM 46.0 °F 43.9 °F 37.0 °F 71% 30.03 in 10.0 mi ESE 4.6 mph - N/A   Clear
7:53 PM 45.0 °F 42.6 °F 37.9 °F 76% 30.02 in 10.0 mi ESE 4.6 mph - N/A   Clear
8:53 PM 45.0 °F 43.5 °F 37.9 °F 76% 30.01 in 10.0 mi SE 3.5 mph - N/A   Clear
9:37 PM 48.2 °F - 42.8 °F 82% 30.00 in 10.0 mi ESE 6.9 mph - N/A   Overcast
9:53 PM 48.9 °F - 44.1 °F 83% 30.00 in 10.0 mi SE 6.9 mph - N/A   Overcast
10:45 PM 50.0 °F - 46.4 °F 87% 29.98 in 9.0 mi SE 5.8 mph - N/A   Mostly Cloudy
10:53 PM 48.9 °F - 46.0 °F 90% 29.99 in 9.0 mi SSE 5.8 mph - N/A   Mostly Cloudy
11:53 PM 51.1 °F - 48.9 °F 92% 29.98 in 5.0 mi SSE 6.9 mph - N/A   Mostly Cloudy